| time (UTC) | temp C | wind direction | speed KPH | gust KPH | rain 1hr cm | rain 24hr cm | rain mn cm | humidity % | barometer mb |
| 20260505211211 | 12 | 194 | 8.0 | 16.1 | 0.00 | 0.00 | 0.00 | 89 | 1008.9 |
| 20260505210211 | 12 | 161 | 8.0 | 16.1 | 0.00 | 0.00 | 0.00 | 88 | 1008.8 |
| 20260505205212 | 12 | 226 | 8.0 | 17.7 | 0.00 | 0.00 | 0.00 | 88 | 1009.0 |
| 20260505204213 | 13 | 174 | 3.2 | 14.5 | 0.00 | 0.00 | 0.00 | 87 | 1008.9 |
| 20260505203212 | 13 | 161 | 4.8 | 9.7 | 0.00 | 0.00 | 0.00 | 87 | 1009.0 |
| 20260505202212 | 13 | 188 | 3.2 | 6.4 | 0.00 | 0.00 | 0.00 | 86 | 1009.0 |
| 20260505201212 | 13 | 181 | 1.6 | 4.8 | 0.00 | 0.00 | 0.00 | 86 | 1008.7 |
| 20260505200212 | 13 | 209 | 3.2 | 11.3 | 0.00 | 0.00 | 0.00 | 86 | 1008.6 |
| 20260505195212 | 13 | 219 | 6.4 | 12.9 | 0.00 | 0.00 | 0.00 | 85 | 1008.7 |
| 20260505194211 | 13 | 197 | 8.0 | 16.1 | 0.00 | 0.00 | 0.00 | 85 | 1008.5 |
| 20260505193213 | 14 | 240 | 9.7 | 16.1 | 0.00 | 0.00 | 0.00 | 85 | 1008.6 |
| 20260505192212 | 14 | 219 | 8.0 | 12.9 | 0.00 | 0.00 | 0.00 | 84 | 1008.5 |
| 20260505191211 | 14 | 223 | 9.7 | 16.1 | 0.00 | 0.00 | 0.00 | 84 | 1008.4 |
| 20260505190212 | 14 | 223 | 9.7 | 17.7 | 0.00 | 0.00 | 0.00 | 84 | 1008.2 |
| 20260505185211 | 15 | 229 | 12.9 | 19.3 | 0.00 | 0.00 | 0.00 | 84 | 1008.2 |
| 20260505184211 | 15 | 222 | 9.7 | 19.3 | 0.00 | 0.00 | 0.00 | 85 | 1008.2 |
| 20260505183211 | 15 | 203 | 8.0 | 16.1 | 0.00 | 0.00 | 0.00 | 85 | 1008.1 |
| 20260505182211 | 15 | 220 | 9.7 | 16.1 | 0.00 | 0.00 | 0.00 | 84 | 1007.9 |
| 20260505181211 | 15 | 186 | 8.0 | 20.9 | 0.00 | 0.00 | 0.00 | 82 | 1007.8 |
| 20260505180211 | 16 | 212 | 8.0 | 19.3 | 0.00 | 0.00 | 0.00 | 83 | 1007.9 |
| 20260505175211 | 16 | 195 | 8.0 | 19.3 | 0.00 | 0.00 | 0.00 | 83 | 1007.8 |
| 20260505174211 | 16 | 268 | 12.9 | 19.3 | 0.00 | 0.00 | 0.00 | 84 | 1007.8 |
| 20260505173212 | 16 | 215 | 9.7 | 19.3 | 0.00 | 0.00 | 0.00 | 84 | 1007.7 |
| 20260505172211 | 16 | 194 | 6.4 | 16.1 | 0.00 | 0.00 | 0.00 | 84 | 1007.7 |
| 20260505171211 | 16 | 234 | 9.7 | 19.3 | 0.00 | 0.00 | 0.00 | 84 | 1007.6 |
| 20260505170211 | 16 | 200 | 9.7 | 19.3 | 0.00 | 0.00 | 0.00 | 84 | 1007.5 |
| 20260505165211 | 16 | 268 | 9.7 | 17.7 | 0.00 | 0.00 | 0.00 | 85 | 1007.6 |
| 20260505164211 | 16 | 219 | 9.7 | 20.9 | 0.00 | 0.00 | 0.00 | 85 | 1007.8 |
| 20260505163211 | 16 | 204 | 8.0 | 14.5 | 0.00 | 0.00 | 0.00 | 85 | 1007.7 |
| 20260505162210 | 16 | 183 | 9.7 | 19.3 | 0.00 | 0.00 | 0.00 | 85 | 1007.7 |
| 20260505161210 | 16 | 225 | 9.7 | 20.9 | 0.00 | 0.00 | 0.00 | 86 | 1007.6 |
| 20260505160210 | 16 | 216 | 8.0 | 16.1 | 0.00 | 0.00 | 0.00 | 86 | 1007.6 |
| 20260505153211 | 16 | 184 | 6.4 | 14.5 | 0.00 | 0.00 | 0.00 | 88 | 1007.6 |
| 20260505152211 | 16 | 174 | 6.4 | 16.1 | 0.00 | 0.00 | 0.00 | 86 | 1007.6 |
| 20260505151211 | 16 | 223 | 6.4 | 17.7 | 0.00 | 0.00 | 0.00 | 85 | 1007.8 |
| 20260505150210 | 16 | 213 | 4.8 | 9.7 | 0.00 | 0.00 | 0.00 | 83 | 1007.7 |
| 20260505140210 | 19 | 188 | 1.6 | 6.4 | 0.00 | 0.00 | 0.00 | 65 | 1007.5 |
| 20260505130210 | 20 | 272 | 1.6 | 9.7 | 0.00 | 0.00 | 0.00 | 66 | 1007.9 |
| 20260505124210 | 20 | 273 | 0.0 | 4.8 | 0.00 | 0.00 | 0.00 | 67 | 1008.0 |
| 20260505123210 | 20 | 205 | 6.4 | 11.3 | 0.00 | 0.00 | 0.00 | 69 | 1008.0 |
| 20260505122211 | 19 | 13 | 1.6 | 8.0 | 0.00 | 0.00 | 0.00 | 73 | 1008.1 |
| 20260505121319 | 18 | 190 | 3.2 | 9.7 | 0.00 | 0.00 | 0.00 | 79 | 1008.2 |
| 20260505121210 | 18 | 190 | 3.2 | 9.7 | 0.00 | 0.00 | 0.00 | 79 | 1008.2 |
| 20260505120210 | 17 | 75 | 3.2 | 4.8 | 0.00 | 0.00 | 0.00 | 83 | 1008.3 |
| 20260505115210 | 16 | 244 | 4.8 | 6.4 | 0.00 | 0.00 | 0.00 | 84 | 1008.4 |
| 20260505114210 | 16 | 284 | 3.2 | 6.4 | 0.00 | 0.00 | 0.00 | 85 | 1008.6 |
| 20260505113210 | 16 | 150 | 3.2 | 8.0 | 0.00 | 0.00 | 0.00 | 86 | 1008.7 |
| 20260505112210 | 16 | 179 | 3.2 | 6.4 | 0.00 | 0.00 | 0.00 | 87 | 1008.8 |
| 20260505111210 | 16 | 229 | 1.6 | 6.4 | 0.00 | 0.00 | 0.00 | 88 | 1008.8 |
| 20260505110210 | 16 | 266 | 1.6 | 6.4 | 0.00 | 0.00 | 0.00 | 89 | 1008.9 |
| 20260505102210 | 15 | 193 | 1.6 | 4.8 | 0.00 | 0.00 | 0.00 | 92 | 1009.0 |
| 20260505101210 | 15 | 270 | 4.8 | 6.4 | 0.00 | 0.00 | 0.00 | 93 | 1008.9 |
| 20260505100210 | 15 | 296 | 0.0 | 4.8 | 0.00 | 0.00 | 0.00 | 93 | 1008.9 |
| 20260505095210 | 15 | 180 | 3.2 | 8.0 | 0.00 | 0.00 | 0.00 | 93 | 1009.0 |
| 20260505094210 | 15 | 210 | 1.6 | 4.8 | 0.00 | 0.00 | 0.00 | 93 | 1009.0 |
| 20260505093211 | 15 | 240 | 1.6 | 6.4 | 0.00 | 0.00 | 0.00 | 93 | 1009.0 |
| 20260505092216 | 15 | 179 | 0.0 | 0.0 | 0.00 | 0.00 | 0.00 | 94 | 1009.0 |
| 20260505091215 | 15 | 232 | 0.0 | 4.8 | 0.00 | 0.00 | 0.00 | 94 | 1009.1 |
| 20260505090216 | 14 | 218 | 0.0 | 4.8 | 0.00 | 0.00 | 0.00 | 94 | 1009.1 |
| 20260505085216 | 14 | 222 | 1.6 | 6.4 | 0.00 | 0.00 | 0.00 | 94 | 1009.2 |
| 20260505084216 | 14 | 156 | 4.8 | 9.7 | 0.00 | 0.00 | 0.00 | 94 | 1009.2 |
| 20260505083215 | 14 | 269 | 4.8 | 11.3 | 0.00 | 0.00 | 0.00 | 94 | 1009.3 |
| 20260505082215 | 14 | 197 | 8.0 | 11.3 | 0.00 | 0.00 | 0.00 | 94 | 1009.4 |
| 20260505081215 | 14 | 233 | 3.2 | 9.7 | 0.00 | 0.00 | 0.00 | 94 | 1009.4 |
| 20260505080215 | 14 | 235 | 4.8 | 9.7 | 0.00 | 0.00 | 0.00 | 94 | 1009.5 |
| 20260505075215 | 13 | 258 | 3.2 | 8.0 | 0.00 | 0.00 | 0.00 | 94 | 1009.5 |
| 20260505074215 | 13 | 180 | 4.8 | 8.0 | 0.00 | 0.00 | 0.00 | 94 | 1009.5 |
| 20260505073215 | 13 | 219 | 4.8 | 9.7 | 0.00 | 0.00 | 0.00 | 94 | 1009.7 |
| 20260505072215 | 13 | 217 | 3.2 | 8.0 | 0.00 | 0.00 | 0.00 | 94 | 1009.7 |
| 20260505071215 | 13 | 209 | 4.8 | 9.7 | 0.00 | 0.00 | 0.00 | 94 | 1009.8 |
| 20260505070215 | 12 | 228 | 3.2 | 11.3 | 0.00 | 0.00 | 0.00 | 94 | 1009.8 |
| 20260505065215 | 12 | 247 | 3.2 | 9.7 | 0.00 | 0.00 | 0.00 | 94 | 1009.9 |
| 20260505064215 | 12 | 224 | 4.8 | 16.1 | 0.00 | 0.00 | 0.00 | 93 | 1009.9 |
| 20260505063215 | 12 | 200 | 4.8 | 9.7 | 0.00 | 0.00 | 0.00 | 93 | 1009.9 |
| 20260505062215 | 12 | 182 | 4.8 | 9.7 | 0.00 | 0.00 | 0.00 | 94 | 1009.9 |
| 20260505061215 | 12 | 230 | 3.2 | 8.0 | 0.00 | 0.00 | 0.00 | 93 | 1010.1 |
| 20260505060215 | 12 | 214 | 3.2 | 6.4 | 0.00 | 0.00 | 0.00 | 93 | 1010.0 |
| 20260505055215 | 12 | 202 | 3.2 | 6.4 | 0.00 | 0.00 | 0.00 | 93 | 1010.1 |
| 20260505054215 | 11 | 195 | 1.6 | 6.4 | 0.00 | 0.00 | 0.00 | 93 | 1010.1 |
| 20260505053215 | 11 | 185 | 1.6 | 6.4 | 0.00 | 0.00 | 0.00 | 93 | 1010.2 |
| 20260505052215 | 11 | 193 | 3.2 | 4.8 | 0.00 | 0.00 | 0.00 | 93 | 1010.1 |
| 20260505051215 | 11 | 253 | 0.0 | 3.2 | 0.00 | 0.00 | 0.00 | 93 | 1010.0 |
| 20260505050214 | 11 | 271 | 0.0 | 3.2 | 0.00 | 0.00 | 0.00 | 93 | 1010.1 |
| 20260505041215 | 11 | 279 | 0.0 | 0.0 | 0.00 | 0.00 | 0.00 | 93 | 1010.0 |
| 20260505040215 | 11 | 286 | 0.0 | 4.8 | 0.00 | 0.00 | 0.00 | 92 | 1010.1 |
| 20260505035215 | 11 | 266 | 0.0 | 4.8 | 0.00 | 0.00 | 0.00 | 92 | 1010.3 |
| 20260505034214 | 11 | 265 | 3.2 | 9.7 | 0.00 | 0.00 | 0.00 | 93 | 1010.2 |
| 20260505033215 | 11 | 269 | 0.0 | 0.0 | 0.00 | 0.00 | 0.00 | 92 | 1010.2 |
| 20260505032214 | 11 | 231 | 0.0 | 0.0 | 0.00 | 0.00 | 0.00 | 92 | 1010.1 |
| 20260505031214 | 11 | 203 | 0.0 | 0.0 | 0.00 | 0.00 | 0.00 | 92 | 1010.1 |
| 20260505030214 | 11 | 203 | 0.0 | 0.0 | 0.00 | 0.00 | 0.00 | 92 | 1010.2 |
| 20260505025215 | 11 | 180 | 0.0 | 0.0 | 0.00 | 0.00 | 0.00 | 92 | 1010.3 |
| 20260505024214 | 11 | 180 | 0.0 | 0.0 | 0.00 | 0.00 | 0.00 | 92 | 1010.3 |
| 20260505023214 | 11 | 180 | 0.0 | 0.0 | 0.00 | 0.00 | 0.00 | 92 | 1010.3 |
| 20260505022214 | 11 | 180 | 0.0 | 0.0 | 0.00 | 0.00 | 0.00 | 92 | 1010.4 |
| 20260505021214 | 11 | 172 | 0.0 | 0.0 | 0.00 | 0.00 | 0.00 | 92 | 1010.4 |
| 20260505020214 | 11 | 208 | 0.0 | 0.0 | 0.00 | 0.00 | 0.00 | 92 | 1010.6 |
| 20260505015215 | 11 | 208 | 0.0 | 0.0 | 0.00 | 0.00 | 0.00 | 91 | 1010.6 |
| 20260505014215 | 11 | 208 | 0.0 | 0.0 | 0.00 | 0.00 | 0.00 | 91 | 1010.7 |
| 20260505013215 | 11 | 208 | 0.0 | 0.0 | 0.00 | 0.00 | 0.00 | 91 | 1010.8 |
| 20260505012215 | 11 | 208 | 0.0 | 0.0 | 0.00 | 0.00 | 0.00 | 91 | 1011.0 |
| 20260505011215 | 11 | 208 | 0.0 | 0.0 | 0.00 | 0.00 | 0.00 | 91 | 1011.1 |
| 20260505010214 | 11 | 267 | 0.0 | 0.0 | 0.00 | 0.00 | 0.00 | 91 | 1011.3 |
| 20260505005215 | 11 | 267 | 0.0 | 0.0 | 0.00 | 0.00 | 0.00 | 91 | 1011.4 |
| 20260505004216 | 11 | 267 | 0.0 | 0.0 | 0.00 | 0.00 | 0.00 | 91 | 1011.5 |
| 20260505003215 | 11 | 267 | 0.0 | 0.0 | 0.00 | 0.00 | 0.00 | 90 | 1011.7 |
| 20260505002215 | 11 | 267 | 0.0 | 0.0 | 0.00 | 0.00 | 0.00 | 90 | 1011.8 |
| 20260505001214 | 11 | 267 | 0.0 | 0.0 | 0.00 | 0.00 | 0.00 | 90 | 1011.8 |
| 20260505000215 | 11 | 267 | 0.0 | 0.0 | 0.00 | 0.00 | 0.00 | 90 | 1011.9 |
| 20260504235215 | 11 | 231 | 0.0 | 0.0 | 0.00 | 0.00 | 0.00 | 90 | 1011.9 |
| 20260504234215 | 12 | 231 | 0.0 | 0.0 | 0.00 | 0.00 | 0.00 | 90 | 1012.1 |
| 20260504233215 | 12 | 231 | 0.0 | 0.0 | 0.00 | 0.00 | 0.00 | 90 | 1012.1 |
| 20260504232214 | 12 | 231 | 0.0 | 0.0 | 0.00 | 0.00 | 0.00 | 90 | 1012.2 |
| 20260504231214 | 12 | 255 | 0.0 | 0.0 | 0.00 | 0.00 | 0.00 | 89 | 1012.3 |
| 20260504230214 | 12 | 255 | 0.0 | 0.0 | 0.00 | 0.00 | 0.00 | 89 | 1012.3 |
| 20260504225216 | 12 | 255 | 0.0 | 0.0 | 0.00 | 0.00 | 0.00 | 89 | 1012.4 |
| 20260504224214 | 12 | 313 | 0.0 | 0.0 | 0.00 | 0.00 | 0.00 | 89 | 1012.3 |
| 20260504223214 | 12 | 268 | 0.0 | 0.0 | 0.00 | 0.00 | 0.00 | 89 | 1012.5 |
| 20260504222214 | 12 | 257 | 0.0 | 0.0 | 0.00 | 0.00 | 0.00 | 88 | 1012.6 |
| 20260504221214 | 12 | 257 | 0.0 | 0.0 | 0.00 | 0.00 | 0.00 | 88 | 1012.6 |
| 20260504220214 | 12 | 247 | 0.0 | 0.0 | 0.00 | 0.00 | 0.00 | 88 | 1012.5 |
| 20260504215214 | 12 | 101 | 0.0 | 0.0 | 0.00 | 0.00 | 0.00 | 88 | 1012.4 |
| 20260504214214 | 12 | 101 | 0.0 | 0.0 | 0.00 | 0.00 | 0.00 | 88 | 1012.5 |
| 20260504213214 | 12 | 154 | 0.0 | 0.0 | 0.00 | 0.00 | 0.00 | 88 | 1012.7 |
| 20260504212214 | 13 | 177 | 0.0 | 0.0 | 0.00 | 0.00 | 0.00 | 88 | 1012.8 |